When you browse on this site, cookies collect data to enhance your experience and personalize the content and advertising you see.
Visit our Privacy Policy to learn more. By continuing to use the site, you agree to this use of cookies and data.
  • In Austria
  • List of Countries
  • For 7 days
  • Water Temperature
  • Satellite Maps
  • Weather Map
  • News
  • Weather Widgets
  • user-avatar
    Login

    Hourly Weather Prutz

    Today, 20 March, Wednesday

    Time Temperature Precipitation Wind Pressure Humidity
    00:00 -11°C° 0 mm 1 mps 635 mmHg 93%
    01:00 -10°C° 0 mm 1 mps 635 mmHg 93%
    02:00 -11°C° 0 mm 1 mps 635 mmHg 93%
    03:00 -12°C° 0 mm 1 mps 635 mmHg 92%
    04:00 -12°C° 0 mm 1 mps 635 mmHg 92%
    05:00 -12°C° 0 mm 1 mps 635 mmHg 87%
    06:00 -12°C° 0 mm 1 mps 635 mmHg 81%
    07:00 -9°C° 0 mm 1 mps 636 mmHg 77%
    08:00 -7°C° 0 mm 1 mps 637 mmHg 72%
    09:00 -3°C° 0 mm 1 mps 638 mmHg 68%
    10:00 -1°C° 0 mm 1 mps 639 mmHg 63%
    11:00 -2°C° 0 mm 2 mps 639 mmHg 67%
    12:00 -1°C° 0 mm 2 mps 639 mmHg 70%
    13:00 +1°C° 0 mm 2 mps 639 mmHg 74%
    14:00 +1°C° 0 mm 2 mps 639 mmHg 75%
    15:00 +1°C° 0 mm 2 mps 639 mmHg 77%
    16:00 +1°C° 0 mm 2 mps 639 mmHg 79%
    17:00 -1°C° 0 mm 1 mps 638 mmHg 83%
    18:00 -3°C° 0 mm 1 mps 638 mmHg 88%
    19:00 -6°C° 0 mm 1 mps 637 mmHg 92%
    20:00 -7°C° 0 mm 1 mps 637 mmHg 86%
    21:00 -7°C° 0 mm 1 mps 638 mmHg 80%
    22:00 -7°C° 0 mm 1 mps 638 mmHg 74%
    23:00 -8°C° 0 mm 2 mps 638 mmHg 68%

    Tomorrow, 21 March, Thursday

    Time Temperature Precipitation Wind Pressure Humidity
    00:00 -8°C° 0 mm 2 mps 638 mmHg 61%
    01:00 -8°C° 0 mm 2 mps 638 mmHg 55%
    02:00 -8°C° 0 mm 2 mps 638 mmHg 53%
    03:00 -8°C° 0 mm 2 mps 638 mmHg 50%
    04:00 -7°C° 0 mm 2 mps 638 mmHg 47%
    05:00 -7°C° 0 mm 2 mps 638 mmHg 47%
    06:00 -6°C° 0 mm 2 mps 639 mmHg 47%
    07:00 -6°C° 0 mm 2 mps 639 mmHg 46%
    08:00 -3°C° 0 mm 2 mps 640 mmHg 58%
    09:00 +1°C° 0 mm 2 mps 640 mmHg 71%
    10:00 +6°C° 0 mm 1 mps 641 mmHg 83%
    11:00 +6°C° 0 mm 1 mps 641 mmHg 85%
    12:00 +7°C° 0 mm 1 mps 641 mmHg 87%
    13:00 +7°C° 0 mm 1 mps 641 mmHg 89%
    14:00 +7°C° 0 mm 1 mps 640 mmHg 89%
    15:00 +7°C° 0 mm 1 mps 640 mmHg 90%
    16:00 +7°C° 0 mm 1 mps 640 mmHg 90%
    17:00 +5°C° 0 mm 1 mps 639 mmHg 83%
    18:00 +3°C° 0 mm 1 mps 639 mmHg 75%
    19:00 -1°C° 0 mm 2 mps 639 mmHg 68%
    20:00 -1°C° 0 mm 2 mps 639 mmHg 61%
    21:00 -2°C° 0 mm 2 mps 639 mmHg 55%
    22:00 -2°C° 0 mm 2 mps 639 mmHg 48%
    23:00 -2°C° 0 mm 2 mps 639 mmHg 45%

    Day after tomorrow, 22 March, Friday

    Time Temperature Precipitation Wind Pressure Humidity
    00:00 -2°C° 0 mm 3 mps 639 mmHg 43%
    01:00 -4°C° 0 mm 3 mps 639 mmHg 41%
    02:00 -4°C° 0 mm 3 mps 639 mmHg 41%
    03:00 -4°C° 0 mm 3 mps 639 mmHg 41%
    04:00 -4°C° 0 mm 3 mps 638 mmHg 41%
    05:00 -2°C° 0 mm 3 mps 639 mmHg 41%
    06:00 -2°C° 0 mm 2 mps 639 mmHg 41%
    07:00 -2°C° 0 mm 2 mps 639 mmHg 41%
    08:00 +2°C° 0 mm 2 mps 639 mmHg 57%
    09:00 +5°C° 0 mm 1 mps 640 mmHg 72%
    10:00 +8°C° 0 mm 1 mps 641 mmHg 87%
    11:00 +7°C° 0 mm 0 mps 640 mmHg 87%
    12:00 +8°C° 0 mm 0 mps 640 mmHg 86%
    13:00 +8°C° 0 mm 0 mps 640 mmHg 86%
    14:00 +8°C° 0 mm 0 mps 640 mmHg 86%
    15:00 +8°C° 0 mm 0 mps 640 mmHg 87%
    16:00 +8°C° 0 mm 0 mps 639 mmHg 87%
    17:00 +6°C° 0 mm 0 mps 639 mmHg 85%
    18:00 +4°C° 0 mm 0 mps 638 mmHg 83%
    19:00 +3°C° 0 mm 1 mps 638 mmHg 81%
    20:00 +2°C° 0 mm 1 mps 638 mmHg 76%
    21:00 +2°C° 0 mm 1 mps 638 mmHg 70%
    22:00 +1°C° 0 mm 2 mps 639 mmHg 65%
    23:00 +1°C° 0 mm 2 mps 639 mmHg 62%

    23 March, Saturday

    Time Temperature Precipitation Wind Pressure Humidity
    00:00 +1°C° 0 mm 1 mps 638 mmHg 58%
    01:00 +1°C° 0 mm 1 mps 638 mmHg 55%
    02:00 +1°C° 0 mm 1 mps 638 mmHg 54%
    03:00 +1°C° 0 mm 1 mps 638 mmHg 53%
    04:00 +1°C° 0 mm 1 mps 638 mmHg 53%
    05:00 +1°C° 0 mm 1 mps 638 mmHg 54%
    06:00 +1°C° 0 mm 1 mps 638 mmHg 55%
    07:00 +1°C° 0 mm 1 mps 638 mmHg 56%
    08:00 +4°C° 0 mm 1 mps 639 mmHg 64%
    09:00 +6°C° 0 mm 1 mps 639 mmHg 71%
    10:00 +7°C° 0 mm 0 mps 640 mmHg 78%
    11:00 +8°C° 0 mm 1 mps 639 mmHg 77%
    12:00 +9°C° 0 mm 1 mps 639 mmHg 77%
    13:00 +9°C° 0 mm 1 mps 639 mmHg 77%
    14:00 +9°C° 0 mm 1 mps 639 mmHg 78%
    15:00 +9°C° 0 mm 1 mps 638 mmHg 80%
    16:00 +9°C° 0 mm 1 mps 638 mmHg 81%
    17:00 +7°C° 0 mm 1 mps 638 mmHg 81%
    18:00 +5°C° 0 mm 1 mps 637 mmHg 80%
    19:00 +3°C° 0 mm 1 mps 636 mmHg 80%
    20:00 +3°C° 0 mm 1 mps 637 mmHg 75%
    21:00 +2°C° 0 mm 2 mps 637 mmHg 71%
    22:00 +2°C° 0 mm 2 mps 637 mmHg 66%
    23:00 +1°C° 0 mm 2 mps 637 mmHg 65%

    24 March, Sunday

    Time Temperature Precipitation Wind Pressure Humidity
    00:00 0°C° 0 mm 3 mps 637 mmHg 64%
    01:00 0°C° 0 mm 3 mps 637 mmHg 62%
    02:00 0°C° 0 mm 3 mps 636 mmHg 64%
    03:00 0°C° 0 mm 3 mps 636 mmHg 65%
    04:00 0°C° 0 mm 3 mps 636 mmHg 67%
    05:00 0°C° 0 mm 3 mps 636 mmHg 68%
    06:00 +1°C° 0 mm 2 mps 636 mmHg 69%
    07:00 +1°C° 0 mm 2 mps 636 mmHg 70%
    08:00 +3°C° 0 mm 2 mps 637 mmHg 72%
    09:00 +6°C° 0 mm 1 mps 637 mmHg 73%
    10:00 +8°C° 0 mm 1 mps 637 mmHg 75%
    11:00 +9°C° 0 mm 1 mps 637 mmHg 75%
    12:00 +9°C° 0 mm 1 mps 637 mmHg 75%
    13:00 +9°C° 0 mm 1 mps 637 mmHg 74%
    14:00 +9°C° 0 mm 1 mps 636 mmHg 76%
    15:00 +9°C° 0 mm 1 mps 636 mmHg 78%
    16:00 +9°C° 0 mm 1 mps 635 mmHg 79%
    17:00 +7°C° 0 mm 1 mps 635 mmHg 84%
    18:00 +5°C° 0 mm 1 mps 634 mmHg 88%
    19:00 +3°C° 0 mm 1 mps 634 mmHg 92%
    20:00 +3°C° 0 mm 1 mps 634 mmHg 93%
    21:00 +2°C° 0 mm 1 mps 634 mmHg 93%
    22:00 +2°C° 0 mm 1 mps 635 mmHg 93%
    23:00 +2°C° 0 mm 1 mps 634 mmHg 93%

    25 March, Monday

    Time Temperature Precipitation Wind Pressure Humidity
    00:00 +2°C° 0 mm 1 mps 634 mmHg 93%
    01:00 +2°C° 0 mm 1 mps 634 mmHg 92%
    02:00 +1°C° 0 mm 1 mps 634 mmHg 92%
    03:00 +1°C° 0 mm 1 mps 634 mmHg 92%
    04:00 +1°C° 0 mm 1 mps 634 mmHg 92%
    05:00 +2°C° 0 mm 1 mps 634 mmHg 92%
    06:00 +2°C° 0 mm 1 mps 634 mmHg 91%
    07:00 +2°C° 0 mm 1 mps 634 mmHg 91%
    08:00 +3°C° 0 mm 1 mps 634 mmHg 88%
    09:00 +3°C° 0 mm 2 mps 635 mmHg 85%
    10:00 +4°C° 0 mm 2 mps 635 mmHg 82%
    11:00 +5°C° 0.1 mm 2 mps 635 mmHg 82%
    12:00 +5°C° 0.1 mm 2 mps 634 mmHg 82%
    13:00 +5°C° 0.1 mm 2 mps 634 mmHg 82%
    14:00 +5°C° 0.2 mm 2 mps 634 mmHg 84%
    15:00 +4°C° 0.2 mm 2 mps 633 mmHg 85%
    16:00 +3°C° 0.2 mm 3 mps 633 mmHg 87%
    17:00 +3°C° 0.2 mm 2 mps 633 mmHg 90%
    18:00 +2°C° 0.2 mm 2 mps 633 mmHg 93%
    19:00 +1°C° 0.2 mm 2 mps 633 mmHg 95%
    20:00 +1°C° 0.1 mm 2 mps 633 mmHg 96%
    21:00 -1°C° 0.1 mm 2 mps 633 mmHg 96%
    22:00 -1°C° 0.1 mm 2 mps 633 mmHg 96%
    23:00 -2°C° 0.1 mm 2 mps 633 mmHg 96%
    Show more